EW0050 Weather Reports


time (UTC)temp
C
wind
direction
speed
KPH
gust
KPH
rain 1hr
cm
rain 24hr
cm
rain mn
cm
humidity
%
barometer
mb
20260506182916 16 248 11.3 17.7 0.00 4.29 0.03 72 1010.8
20260506175931 17 266 9.7 16.1 0.00 4.29 0.03 70 1010.6
20260506172920 17 216 9.7 16.1 0.00 4.29 0.03 71 1010.2
20260506165934 17 263 9.7 19.3 0.00 4.29 0.03 69 1010.2
20260506162921 17 253 12.9 24.1 0.00 4.29 0.03 70 1010.2
20260506155914 17 216 12.9 19.3 0.00 4.29 0.03 68 1010.4
20260506152950 17 232 9.7 20.9 0.00 4.29 0.03 69 1010.3
20260506145942 17 254 11.3 20.9 0.00 4.29 0.03 67 1010.3
20260506142928 18 227 14.5 25.7 0.00 4.29 0.03 67 1010.6
20260506135928 18 244 14.5 22.5 0.00 4.29 0.03 67 1010.6
20260506132914 18 231 12.9 22.5 0.00 4.29 0.03 68 1010.9
20260506125929 18 241 12.9 20.9 0.00 4.29 0.03 69 1010.9
20260506122923 17 244 14.5 25.7 0.00 4.29 0.03 70 1010.9
20260506115928 17 268 16.1 33.8 0.00 4.29 0.03 70 1010.8
20260506112923 17 227 11.3 27.4 0.00 4.29 0.03 70 1010.8
20260506105912 17 231 14.5 25.7 0.00 4.29 0.03 69 1010.9
20260506102922 17 191 16.1 27.4 0.00 4.29 0.03 72 1011.0
20260506095938 17 243 11.3 25.7 0.00 4.29 0.03 75 1010.9
20260506092936 17 233 12.9 20.9 0.00 4.29 0.03 74 1010.9
20260506085924 16 252 9.7 17.7 0.00 4.29 0.03 80 1010.4
20260506082919 15 251 9.7 20.9 0.00 4.29 0.03 85 1010.3
20260506072920 14 236 9.7 17.7 0.00 4.29 0.03 91 1010.0
20260506042930 12 13 0.0 0.0 0.00 4.19 0.00 91 1008.4
20260506035923 12 13 0.0 0.0 0.00 4.19 0.00 91 1008.5
20260506032932 11 14 0.0 0.0 0.00 4.19 0.00 91 1008.5
20260506025925 12 12 0.0 1.6 0.00 4.19 0.00 90 1008.4
20260506022919 12 153 0.0 0.0 0.00 4.39 0.84 90 1008.0
20260506015928 12 153 0.0 0.0 0.00 4.39 0.84 90 1007.6
20260506012943 12 80 3.2 11.3 0.20 5.51 0.84 90 1007.2
20260506005914 13 29 1.6 8.0 3.81 5.51 0.84 89 1007.8
20260506002912 15 298 9.7 20.9 3.91 5.31 0.79 88 1008.2
20260505235921 15 26 0.0 4.8 0.41 1.70 0.08 88 1008.5
20260505232912 15 95 3.2 8.0 0.10 2.39 0.03 87 1008.3
20260505225923 15 78 3.2 9.7 0.00 2.31 0.00 86 1009.0
20260505222912 15 76 3.2 9.7 0.00 3.99 0.00 86 1008.9
20260505215911 16 125 3.2 11.3 0.00 3.99 0.00 85 1009.3
20260505212921 16 73 4.8 14.5 0.00 3.99 0.00 84 1009.8
20260505205920 16 146 3.2 12.9 0.00 3.99 0.00 84 1010.3
20260505202928 16 134 0.0 6.4 0.00 3.99 0.00 83 1010.4
20260505195936 16 95 0.0 0.0 0.00 3.99 0.00 81 1010.0
20260505192914 17 40 0.0 4.8 0.00 3.99 0.00 80 1009.9
20260505185927 16 211 0.0 0.0 0.00 3.99 0.00 78 1010.0